CHINASAT 16 (SJ-13)

Last updated on Wed Jul 09 2025 00:02:46 GMT+0000 (Coordinated Universal Time)

1 42662U 17018A 25189.62685439 -.00000337 00000+0 00000+0 0 9997 2 42662 0.0427 93.4756 0004721 126.3157 43.2220 1.00270904 30298
UTC large
Height (km)
Speed (km/s)
/
Latitude / Longitude
Inclination (degrees)
Orbital Period (minutes)
Azimuth
Elevation
Range (km)
Doppler Factor

Next 0 passes for location: London (51.5072 / 0.1276)

Sorry there are no passes over London.